Bryce Canyon, UT

1:46 PM MST on December 05, 2019 (GMT -0700)
Bryce Canyon

Weather History for KBCE - October, 2019

Change the Weather History Date:

Sunday, October 6, 2019

  Actual Average Record
Temperature  
Mean Temperature 45 °F -  
Max Temperature 63 °F 63 °F 75 °F (1979)
Min Temperature 28 °F 30 °F 14 °F (1969)
Degree Days  
Heating Degree Days 20    
Moisture  
Dew Point 9 °F    
Average Humidity 27    
Maximum Humidity 54    
Minimum Humidity 13    
Precipitation  
Precipitation 0.00 in - - ()
Sea Level Pressure  
Sea Level Pressure 30.20 in    
Wind  
Wind Speed 9 mph (NW)    
Max Wind Speed 16 mph    
Max Gust Speed -    
Visibility 10 miles    
Events      
Averages and records for this station are not official NWS values.
T = Trace of Precipitation, MM = Missing Value Source: NWS Daily Summary

Daily Weather History Graph

Daily Weather History Graph

Search for Another Location

Airport or City:

Astronomy

Oct. 06, 2019 Rise Set
Actual Time 7:28 AM MDT 7:04 PM MDT
Civil Twilight 7:02 AM MDT 7:30 PM MDT
Nautical Twilight 6:31 AM MDT 8:00 PM MDT
Astronomical Twilight 6:01 AM MDT 8:31 PM MDT
Moon 3:38 PM MDT (10/6) 12:38 AM MDT (10/6)
Length of Visible Light 12h 28m
Length of Day
11h 35m
First Quarter, 60% of the Moon is Illuminated
Oct 6
First Quarter
Oct 13
Full
Oct 21
Last Quarter
Oct 27
New
Nov 4
First Quarter

Hourly Weather History & Observations

Time (MDT) Temp. Windchill Dew Point Humidity Pressure Visibility Wind Dir Wind Speed Gust Speed Precip Events Conditions
12:53 AM 33.1 °F 25.5 °F 3.9 °F 29% 30.07 in 10.0 mi West 9.2 mph - N/A   Clear
1:53 AM 34.0 °F 26.0 °F 3.9 °F 28% 30.06 in 10.0 mi West 10.4 mph - N/A   Clear
2:53 AM 44.1 °F 37.7 °F 7.0 °F 22% 30.03 in 10.0 mi WNW 12.7 mph - N/A   Clear
3:53 AM 34.0 °F 25.5 °F 5.0 °F 30% 30.07 in 10.0 mi NNW 11.5 mph - N/A   Clear
4:53 AM 37.9 °F 30.9 °F 9.0 °F 30% 30.09 in 10.0 mi NW 10.4 mph - N/A   Clear
5:53 AM 37.0 °F 30.4 °F 10.9 °F 34% 30.13 in 10.0 mi North 9.2 mph - N/A   Clear
6:53 AM 28.9 °F 23.9 °F 12.0 °F 49% 30.21 in 10.0 mi NNE 4.6 mph - N/A   Clear
7:53 AM 30.9 °F 22.8 °F 16.0 °F 54% 30.27 in 10.0 mi North 9.2 mph - N/A   Clear
8:53 AM 37.0 °F 33.3 °F 15.1 °F 41% 30.32 in 10.0 mi NW 4.6 mph - N/A   Clear
9:53 AM 46.9 °F - 19.0 °F 33% 30.30 in 10.0 mi NNE 13.8 mph - N/A   Clear
10:53 AM 50.0 °F - 16.0 °F 26% 30.28 in 10.0 mi NNE 16.1 mph - N/A   Clear
11:53 AM 54.0 °F - 12.0 °F 19% 30.26 in 10.0 mi NNE 13.8 mph - N/A   Clear
12:53 PM 57.0 °F - 10.9 °F 16% 30.26 in 10.0 mi Variable 5.8 mph - N/A   Clear
1:53 PM 59.0 °F - 10.9 °F 15% 30.22 in 10.0 mi Variable 3.5 mph - N/A   Clear
2:53 PM 61.0 °F - 12.0 °F 15% 30.14 in 10.0 mi SE 8.1 mph - N/A   Clear
3:53 PM 62.1 °F - 14.0 °F 15% 30.18 in 10.0 mi SE 9.2 mph - N/A   Clear
4:53 PM 62.1 °F - 14.0 °F 15% 30.16 in 10.0 mi ESE 10.4 mph - N/A   Clear
5:53 PM 61.0 °F - 10.0 °F 13% 30.16 in 10.0 mi SSE 9.2 mph - N/A   Clear
6:53 PM 54.0 °F - 6.1 °F 15% 30.22 in 10.0 mi SSE 9.2 mph - N/A   Clear
7:53 PM 42.1 °F 39.2 °F 3.9 °F 21% 30.27 in 10.0 mi South 4.6 mph - N/A   Clear
8:53 PM 37.0 °F 32.4 °F 5.0 °F 26% 30.29 in 10.0 mi WSW 5.8 mph - N/A   Clear
9:53 PM 30.9 °F 26.2 °F 3.0 °F 31% 30.30 in 10.0 mi NNW 4.6 mph - N/A   Clear
10:53 PM 30.0 °F 23.2 °F 3.9 °F 33% 30.30 in 10.0 mi West 6.9 mph - N/A   Clear
11:53 PM 28.9 °F 19.8 °F 3.9 °F 35% 30.27 in 10.0 mi West 10.4 mph - N/A   Clear